Probability
0 0 0 0 0 0 0 0 0 0 0 0 0 0 0 0 0 0 0 0 0 0 0 0 0 0 0 0 0 0 0 0 0 0 0 0 0 0
0 0 0 0 0 0 0 0 0 0 0 0 0 0 0 0 0 0 0 0 0 0 0 0 0 0 0 0 0 0 0 0 0 0 0 0 0 0
0 0 0 0 0 0 0 0 0 0 0 0 0 0 0 0 0 0 0 0 0 0 0 0 0 0 0 0 0 0 0 0 0 0 0 0 0 0
0 0 0 0 0 0 0 0 0 0 0 0 0 0 0 0 0 0 0 0 0 0 0 0 0 0 0 0 0 0 0 0 0 0 0 0 0 0
0 0 0 0 0 0 0 0 0 0 0 0 0 0 0 0 0 0 0 0 0 0 0 0 0 0 0 0 0 0 0 0 0 0 0 0 0 0
0 0 0 0 0 0 0 0 0 0 0 0 0 0 0 0 0 0 0 0 0 0 0 0 0 0 0 0 0 0 0 0 0 0 0 0 0 0
0 0 0 0 0 0 0 0 0 0 0 0 0 0 0 0 0 0 0 0 0 0 0 0 0 0 0 0 0 0 0 0 0 0 0 0 0 0
0 0 0 0 0 0 0 0 0 0 0 0 0 0 0 0 0 0 0 0 0 0 0 0 0 0 0 0 0 0 0 0 0 0 0 0 0 0
0 0 0 0 0 0 0 0 0 0 0 0 0 0 0 0 0 0 0 0 0 0 0 0 0 0 0 0 0 0 0 0 0 0 0 0 0 0
0 0 0 0 0 0 0 0 0 0 0 0 0 0 0 0 0 0 0 0 0 0 0 0 0 0 0 0 0 0 0 0 0 0 0 0 0 0
0 0 0 0 0 0 0 0 0 0 0 0 0 0 0 0 0 0 0 0 0 0 0 0 0 0 0 0 0 0 0 0 0 0 0 0 0 0
0 0 0 0 0 0 0 0 0 0 0 0 0 0 0 0 0 0 0 0 0 0 0 0 0 0 0 0 0 0 0 0 0 0 0 0 0 0
0 0 0 0 0 0 0 0 0 0 0 0 0 0 0 0 0 0 0 0 0 0 0 0 0 0 0 0 0 0 0 0 0 0 0 0 0 0
0 0 0 0 0 0 0 0 0 0 0 0 0 0 0 0 0 0 0 0 0 0 0 0 0 0 0 0 0 0 0 0 0 0 0 0 0 0
0 0 0 0 0 0 0 0 0 0 0 0 0 0 0 0 0 0 0 0 0 0 0 0 0 0 0 0 0 0 0 0 0 0 0 0 0 0
0 0 0 0 0 0 0 0 0 0 0 0 0 0 0 0 0 0 0 0 0 0 0 0 0 0 0 0 0 0 0 0 0 0 0 0 0 0
0 0 0 0 0 0 0 0 0 0 0 0 0 0 0 0 0 0 0 0 0 0 0 0 0 0 0 0 0 0 0 0 0 0 0 0 0 0
0 0 0 0 0 0 0 0 0 0 0 0 0 0 0 0 0 0 0 0 0 0 0 0 0 0 0 0 0 0 0 0 0 0 0 0 0 0
0 0 0 0 0 0 0 0 0 0 0 0 0 0 0 0 0 0 0 0 0 0 0 0 0 0 0 0 0 0 0 0 0 0 0 0 0 0
0 0 0 0 0 0 0 0 0 0 0 0 0 0 0 0 0 0 0 0 0 0 0 0 0 0 0 0 0 0 0 0 0 0 0 0 0 0
0 0 0 0 0 0 0 0 0 0 0 0 0 0 0 0 0 0 0 0 0 0 0 0 0 0 0 0 0 0 0 0 0 0 0 0 0 0
0 0 0 0 0 0 0 0 0 0 0 0 0 0 0 0 0 0 0 0 0 0 0 0 0 0 0 0 0 0 0 0 0 0 0 0 0 0
0 0 0 0 0 0 0 0 0 0 0 0 0 0 0 0 0 0 0 0 0 0 0 0 0 0 0 0 0 0 0 0 0 0 0 0 0 0
Wind_Speed
2 2 2 2 1 1 1 2 3 4 3 2 1 2 2 1 4 4 4 12 16 17 18 15 11 9 9 8 7 7 6 6 7 8 10 11 12 13
4 4 4 3 3 3 2 1 1 3 3 0 1 2 2 2 4 2 3 10 13 14 14 12 10 9 8 8 7 7 8 9 10 11 12 13 14 14
7 7 7 6 4 4 4 3 2 1 2 1 1 2 2 2 2 2 1 1 2 7 8 7 7 7 7 8 8 9 10 11 11 12 13 13 14 14
7 7 7 5 6 5 4 5 4 3 2 1 1 2 3 2 3 3 3 3 3 2 1 1 2 4 5 6 7 9 10 10 11 11 12 13 14 14
8 8 7 7 6 5 5 5 3 3 2 1 2 2 2 2 2 3 3 3 3 4 4 4 3 3 4 6 7 8 9 10 11 11 12 13 13 14
8 7 7 6 5 5 5 5 4 4 3 2 2 2 2 2 2 2 2 3 3 3 3 3 4 5 5 6 7 8 8 10 11 12 12 13 14 14
7 7 8 9 10 7 5 4 4 4 3 3 2 2 3 3 3 2 2 2 2 3 2 2 2 2 3 5 7 9 11 12 13 14 14 15 15 15
6 6 6 8 11 13 13 11 9 5 3 2 2 3 3 3 2 2 2 2 1 2 2 2 1 3 3 3 8 12 13 14 14 15 15 15 15 15
5 4 4 6 7 5 8 11 11 13 10 3 3 2 2 2 2 2 2 1 1 1 1 2 2 3 3 5 11 12 13 13 13 14 14 15 15 15
4 4 4 4 4 4 4 5 5 5 6 4 2 1 1 1 0 0 0 1 2 2 1 2 2 3 3 3 9 11 12 12 12 12 13 13 13 14
3 3 3 3 7 7 4 3 4 4 6 7 6 5 6 4 1 1 1 1 2 2 0 1 2 3 3 3 4 6 6 6 8 9 11 11 12 12
2 4 6 5 7 6 3 2 2 2 2 4 5 6 5 5 5 1 2 2 1 3 2 1 2 3 4 3 2 3 4 8 10 10 11 11 12 7
1 2 3 8 8 7 4 1 3 1 1 2 2 3 2 2 2 2 1 3 3 4 3 1 1 1 2 4 4 3 3 3 3 5 9 14 16 12
1 2 3 8 8 7 4 4 5 4 1 1 2 2 2 2 2 2 3 3 4 6 4 3 3 3 2 3 5 3 3 4 4 6 5 11 13 15
2 4 6 7 6 4 5 6 4 2 1 1 2 2 2 3 3 3 3 3 4 6 6 5 5 4 4 5 5 5 4 4 5 5 5 4 4 4
2 4 5 6 4 4 4 3 2 2 2 2 2 2 2 2 2 2 2 3 3 4 3 4 5 6 5 7 8 9 6 6 3 3 4 6 6 7
2 1 1 1 2 2 2 2 2 2 2 2 2 3 3 3 3 2 2 3 3 4 4 3 4 5 8 7 8 10 10 9 8 6 6 8 8 8
1 1 2 2 3 3 3 3 3 3 3 2 3 3 4 4 4 3 3 4 6 7 6 4 3 3 4 7 13 12 10 9 7 6 6 8 11 8
1 2 3 3 3 3 3 3 3 3 3 3 4 4 4 4 4 5 5 5 6 7 7 5 4 4 6 8 7 11 9 7 6 7 8 8 11 9
2 3 4 4 4 4 4 4 4 4 4 4 4 5 4 4 5 5 5 6 7 8 8 6 6 7 8 8 7 6 12 11 9 10 10 9 11 15
4 4 4 4 4 4 4 4 5 5 5 4 5 5 5 5 6 6 6 11 10 8 10 9 7 11 7 6 9 10 7 14 16 10 8 8 11 11
4 5 5 5 5 5 5 4 5 5 6 5 6 6 5 6 7 8 8 8 8 9 11 10 7 5 6 9 13 15 13 10 13 22 24 20 10 8
5 5 5 5 5 5 5 5 6 6 6 6 6 6 6 6 7 8 9 9 9 10 11 11 8 7 9 11 13 13 16 15 11 11 12 18 26 31
Wind_Direction
10 8 2 354 351 317 278 250 262 279 273 244 274 354 327 303 265 241 234 238 236 237 239 235 221 210 208 208 213 220 230 245 258 265 267 268 269 271
32 38 36 19 19 12 355 329 277 267 275 2 359 347 322 306 279 265 241 241 239 238 236 229 213 204 196 200 218 232 243 253 259 260 263 265 267 268
41 47 41 32 33 24 19 18 9 337 280 354 43 352 340 342 353 9 16 277 268 246 240 223 201 200 207 218 233 245 253 257 260 262 266 270 271 272
47 47 39 37 39 31 30 27 18 8 347 325 14 5 3 5 19 34 38 42 40 18 319 249 218 223 230 236 246 253 257 262 265 268 271 272 273 274
51 50 42 43 42 35 35 30 18 17 17 40 24 21 8 15 30 37 43 34 37 33 27 17 354 319 285 268 264 266 269 269 270 270 270 272 273 274
51 49 44 45 47 43 38 26 21 26 26 38 36 29 24 14 32 32 36 32 28 26 23 12 358 349 327 309 297 291 285 281 277 274 271 270 271 270
51 44 44 47 51 55 53 36 33 34 31 34 30 26 25 18 20 15 31 26 29 21 7 4 357 343 331 314 302 290 281 275 272 271 270 268 266 266
50 36 36 40 43 45 49 47 47 46 38 36 30 34 20 12 11 19 27 28 360 13 5 319 313 287 279 266 276 277 273 270 268 266 265 265 265 266
50 39 35 34 47 38 41 42 38 43 51 67 55 32 13 355 13 20 26 30 306 315 358 296 304 282 276 279 287 281 274 268 265 263 262 263 264 265
44 39 33 11 36 57 51 38 28 26 39 52 73 9 320 296 144 140 136 2 300 280 192 274 297 282 286 290 297 290 277 269 266 263 263 266 268 269
22 22 25 4 17 46 59 38 18 1 14 24 22 11 4 354 5 106 70 36 320 297 266 253 301 301 293 296 310 326 328 308 292 282 277 275 275 278
10 4 6 6 5 25 83 41 354 328 348 356 1 360 1 360 22 104 164 163 224 286 287 246 301 339 321 299 287 301 318 313 307 299 290 286 284 283
6 345 332 345 351 355 14 318 312 17 34 350 338 339 352 3 12 13 151 169 185 237 252 177 232 250 253 295 295 260 256 269 285 282 283 285 284 277
304 296 303 332 345 350 351 331 359 45 23 344 336 333 332 323 318 318 299 246 221 231 244 196 212 207 228 269 278 279 258 248 251 261 257 277 281 276
260 298 321 339 354 351 336 347 19 25 337 320 310 292 271 268 283 300 297 277 263 253 245 217 214 223 224 250 268 276 293 272 244 253 258 253 250 252
305 309 326 338 344 336 341 354 349 300 293 278 280 278 281 278 281 283 292 308 303 289 259 232 219 218 245 252 263 272 265 268 271 244 252 258 254 247
252 205 313 320 322 318 311 304 303 310 313 291 284 290 292 289 286 285 276 287 278 284 289 268 240 230 235 247 262 261 263 262 260 263 263 270 262 249
279 199 262 272 277 282 288 292 288 282 275 270 273 273 279 282 284 278 264 263 270 275 277 277 282 290 273 255 236 252 257 260 261 254 248 264 272 256
252 234 250 257 259 262 262 259 262 263 261 261 261 262 262 266 268 270 266 263 265 268 268 262 248 246 270 278 264 229 238 254 261 261 253 252 266 269
226 239 246 249 250 251 253 255 260 265 259 256 255 255 253 255 262 263 260 257 266 271 272 254 235 230 239 260 270 258 239 248 257 263 265 263 264 271
241 240 240 242 245 246 248 250 252 258 259 256 255 254 251 249 257 259 260 267 270 268 269 266 246 252 251 254 264 264 245 241 245 251 259 267 275 274
240 242 243 241 242 244 247 250 253 255 257 254 255 254 250 246 255 260 260 262 263 262 266 271 266 254 241 251 263 273 279 267 256 260 259 253 255 260
238 240 242 243 243 243 244 247 252 256 254 254 256 255 252 253 255 257 260 261 265 267 271 276 274 259 256 256 263 270 275 278 276 270 261 254 254 257